Preview of NWS' New Version of Forecast
This preview is not operational and should not be used for support decisions.

Regional Weather Roundup (RWR)

Issued by National Weather Service (NWS)

                            
000
ASUS43 KDMX 172306
RWRIA 

WEATHER ROUNDUP FOR IOWA
NATIONAL WEATHER SERVICE DES MOINES IA
600 PM CDT TUE SEP 17 2019

NOTE: "FAIR" INDICATES FEW OR NO CLOUDS BELOW 12,000 FEET WITH NO
SIGNIFICANT WEATHER AND/OR OBSTRUCTIONS TO VISIBILITY.

* - THESE STATIONS ARE NOT NWS STATIONS...THUS NOT UNDER NWS
QUALITY CONTROL.  THEY ALSO DO NOT REPORT WEATHER SUCH 
AS PRECIPITATION OR FOG.  

IAZ001>003-012>014-020>022-031>034-043>046-180000-
   NORTHWEST IOWA
  
CITY           SKY/WX    TMP DP  RH WIND       PRES   REMARKS
CARROLL *      SUNNY     86  68  54 S14G21    29.91F HX  89           
CHEROKEE *     SUNNY     85  67  55 S13       29.86F HX  87           
DENISON *      SUNNY     86  70  58 S17G23    29.90F HX  90           
LE MARS *      SUNNY     86  70  58 SE15G29   29.82F HX  90           
SHELDON *      SUNNY     84  70  61 S12G20    29.84S HX  88           
SIOUX CITY     SUNNY     85  68  56 S18G26    29.82F HX  88           
SPENCER        SUNNY     87  68  52 S16G31    29.87F HX  90           
STORM LAKE *   SUNNY     84  68  58 S15G24    29.86F HX  87           
$$
 
IAZ055>058-069>071-079>083-090>094-180000-
   SOUTHWEST IOWA
  
CITY           SKY/WX    TMP DP  RH WIND       PRES   REMARKS
ATLANTIC *     SUNNY     88  70  55 S17       29.91S HX  92           
AUDUBON *        N/A     86  70  58 S13       29.94S HX  90           
CLARINDA *     SUNNY     88  72  58 S13       29.94F HX  94           
COUNCIL BLFS * SUNNY     88  64  45 S24G31    29.87F HX  89           
CRESTON *      SUNNY     86  70  58 S14       29.96S HX  90           
HARLAN  *      SUNNY     88  68  51 S15G23    29.90F HX  91           
LAMONI         SUNNY     87  70  56 S7G16     29.98S HX  92           
RED OAK *      SUNNY     88  70  55 S14G23    29.92S HAZE    HX  92   
SHENANDOAH *   SUNNY     88  68  51 S15G23    29.90F HX  91           
$$
 
IAZ047>049-059>061-072>074-084-180000-
   CENTRAL IOWA
  
CITY           SKY/WX    TMP DP  RH WIND       PRES   REMARKS
AMES           MOSUNNY   86  71  60 SE10      29.95F HX  91           
ANKENY *       SUNNY     86  73  66 SE12      29.96F HX  93           
BOONE *        SUNNY     88  68  51 S10       29.95S HX  91           
CHARITON *     SUNNY     86  70  58 S8        29.98S HAZE    HX  90   
DES MOINES     MOSUNNY   87  67  51 SE12      29.94F HX  90           
GRINNELL*      SUNNY     82  71  69 SE10      30.01S HX  87           
KNOXVILLE *    SUNNY     86  75  70 SE8G15    29.98S HX  95           
MARSHALLTOWN   SUNNY     82  73  74 SE14      29.98S HX  87           
NEWTON *       SUNNY     84  75  74 SE9       29.98S HX  92           
PELLA *        SUNNY     87  70  58 SE8       29.99F HX  92           
PERRY *        FAIR      88  64  43 S9        29.94S HX  89           
$$
 
IAZ004>006-015-016-023>025-035-036-180000-
   NORTH CENTRAL IOWA
  
CITY           SKY/WX    TMP DP  RH WIND       PRES   REMARKS
ALGONA *       SUNNY     84  72  65 S16G24    29.90F HX  89           
CLARION *      SUNNY     86  72  62 S13       29.95S HX  92           
ESTHERVILLE    SUNNY     82  68  62 S18G29    29.88F HX  85           
FORT DODGE *   SUNNY     86  69  56 S10G17    29.93F HX  90           
MASON CITY     SUNNY     84  70  62 S12G23    29.97S HX  88           
FOREST CITY *  FAIR      84  70  61 S14G23    29.95S HX  88           
IOWA FALLS *     N/A     84  69  60 SE10      29.99S HX  88           
$$

IAZ007>011-017>019-026>030-037>042-050>054-066-180000-
   NORTHEAST IOWA
  
CITY           SKY/WX    TMP DP  RH WIND       PRES   REMARKS
CEDAR RAPIDS   FAIR      79  68  69 SE9       30.02F HX  81           
CHARLES CITY * FAIR      81  70  69 SE13G20   30.00S HX  84           
CLINTON *      FAIR      78  69  73 SE10      30.08S HX  80           
DECORAH *      FAIR      77  66  69 SE9G16    30.02S                  
DUBUQUE        FAIR      74  67  78 SE12      30.08S                  
MONTICELLO *   FAIR      79  70  73 SE9       30.05F HX  81           
OELWEIN *      SUNNY     77  70  78 SE14      30.04R                  
WATERLOO       FAIR      82  67  60 SE17      29.99F HX  84           
$$
 
IAZ064-065-067-068-078-180000-
   EAST CENTRAL IOWA
  
CITY           SKY/WX    TMP DP  RH WIND       PRES   REMARKS
DAVENPORT      FAIR      78  68  71 SE9       30.07F HX  80           
IOWA CITY      FAIR      81  66  60 SE8       30.04F HX  83           
MUSCATINE *    FAIR      82  66  57 SE7G14    30.04S HX  85           
QUAD CITIES    FAIR      79  66  64 SE7       30.05F HX  81           
$$
 
IAZ062-063-075>077-085>089-095>099-180000-
   SOUTHEAST IOWA
  
CITY           SKY/WX    TMP DP  RH WIND       PRES   REMARKS
BURLINGTON     SUNNY     81  67  62 SE7       30.04F HX  83           
FAIRFIELD *    SUNNY     82  73  74 SE12G17   30.02S HX  88           
FORT MADISON * SUNNY     81  73  78 SE5       30.04S HX  85           
KEOKUK *       SUNNY     82  70  65 E9        30.03S HX  86           
OSKALOOSA *      N/A     84  70  62 SE12      30.00F HX  89           
CENTERVILLE *  FAIR      84  75  74 CALM      30.01S HX  92           
OTTUMWA        SUNNY     84  72  67 SE12      30.00S HX  89           
WASHINGTON *     N/A    N/A N/A N/A MISG        N/A                   
$$

ABBREVIATIONS USED IN REMARKS
   TC - TEMPERATURES IN CELSIUS
  WCI - WIND CHILL INDEX
   HX - HEAT INDEX
  VSB - VISIBILITY  
$$